This is the latest recevied weather packets stored in our database for station/object K1LVA. If no packets are shown the sender has not sent any weather packets the latest 10 day(s).
| Time | Temp. | Humidity | Pressure | Rain* | Wind** | Luminosity | Snow |
|---|---|---|---|---|---|---|---|
| 1777898176 | 11.67° C | 99% | 1018.7 hPa | 0 mm | - | 51 W/m² | - |
| 1777897874 | 11.11° C | 99% | 1018.5 hPa | 0 mm | - | 48 W/m² | - |
| 1777897569 | 10.56° C | 99% | 1018.6 hPa | 0 mm | - | 47 W/m² | - |
| 1777897265 | 10.56° C | 99% | 1018.5 hPa | 0 mm | - | 46 W/m² | - |
| 1777896961 | 10° C | 99% | 1018.2 hPa | 0 mm | - | 53 W/m² | - |
| 1777896658 | 10° C | 99% | 1018.4 hPa | 0 mm | - | 44 W/m² | - |
| 1777896355 | 9.44° C | 99% | 1018.4 hPa | 0 mm | - | 41 W/m² | - |
| 1777896053 | 9.44° C | 99% | 1018.5 hPa | 0 mm | - | 41 W/m² | - |
| 1777895751 | 9.44° C | 99% | 1018.5 hPa | 0 mm | - | 39 W/m² | - |
| 1777895448 | 8.89° C | 99% | 1018.5 hPa | 0 mm | - | 38 W/m² | - |
| 1777895146 | 8.89° C | 99% | 1018.5 hPa | 0 mm | - | 35 W/m² | - |
| 1777894843 | 8.89° C | 99% | 1018.3 hPa | 0 mm | - | 33 W/m² | - |
| 1777894539 | 8.89° C | 99% | 1018.4 hPa | 0 mm | - | 31 W/m² | - |
| 1777894237 | 8.33° C | 99% | 1018.4 hPa | 0 mm | - | 29 W/m² | - |
| 1777893934 | 8.33° C | 99% | 1018.4 hPa | 0 mm | - | 27 W/m² | - |
| 1777893630 | 8.33° C | 99% | 1018.4 hPa | 0 mm | - | 25 W/m² | - |
| 1777893327 | 7.78° C | 99% | 1018.3 hPa | 0 mm | - | 23 W/m² | - |
| 1777893022 | 7.78° C | 99% | 1018.5 hPa | 0 mm | - | 20 W/m² | - |
| 1777892720 | 7.78° C | 99% | 1018.2 hPa | 0 mm | - | 17 W/m² | - |
| 1777892416 | 7.78° C | 99% | 1017.8 hPa | 0 mm | - | 14 W/m² | - |
| 1777892112 | 7.78° C | 99% | 1018.2 hPa | 0 mm | - | 10 W/m² | - |
| 1777891809 | 7.78° C | 99% | 1018.1 hPa | 0 mm | - | 8 W/m² | - |
| 1777891506 | 8.33° C | 99% | 1018.1 hPa | 0 mm | - | 5 W/m² | - |
| 1777891202 | 8.33° C | 99% | 1018 hPa | 0 mm | - | 3 W/m² | - |
| 1777890896 | 8.89° C | 99% | 1017.9 hPa | 0 mm | - | 0 W/m² | - |
* Rain latest hour (hover to see other rain measurements)
** Current wind speed in m/s (hover to see current wind gust speed)